GFSFLT1_prec_precacc_111.txt.gz
Total_Precipitation_Accumulation
0.01 0.01 0.01 0.03 0.03 0.05 0.35 0.47 0.46 0.57 0.62 0.58 0.63 0.62 0.78 0.55 0.41 0.77 0.82 1.33 1.06 0.48 0.31 0.22 0.29 0.34 0.47 0.54 0.51 0.51 0.62 0.45
0.03 0.02 0.02 0.01 0.06 0.04 0.10 0.27 0.28 0.44 0.41 0.29 0.36 0.35 0.57 0.42 0.45 0.54 0.94 1.17 1.88 1.02 0.54 0.26 0.22 0.25 0.32 0.41 0.58 0.52 0.65 0.61
0.01 0.00 0.00 0.01 0.05 0.04 0.02 0.04 0.13 0.21 0.26 0.29 0.18 0.23 0.33 0.51 0.56 0.65 0.72 0.83 1.21 1.45 0.84 0.60 0.41 0.45 0.35 0.44 0.60 0.55 0.60 0.52
0.00 0.00 0.00 0.01 0.01 0.01 0.02 0.03 0.06 0.08 0.16 0.28 0.25 0.37 0.40 0.61 0.73 0.88 0.67 0.72 0.98 1.17 1.05 0.90 0.83 1.13 1.14 1.06 1.21 1.04 0.80 0.61
0.00 0.01 0.01 0.02 0.03 0.03 0.06 0.05 0.05 0.03 0.06 0.10 0.09 0.15 0.13 0.15 0.18 0.47 0.75 0.81 1.21 1.50 1.15 1.07 0.85 0.77 0.91 0.92 0.99 1.07 1.06 0.65
0.00 0.01 0.01 0.02 0.04 0.04 0.03 0.08 0.09 0.04 0.07 0.05 0.08 0.10 0.14 0.14 0.09 0.13 0.42 0.70 0.60 1.16 1.33 1.29 1.06 0.89 0.77 0.78 0.65 0.61 0.53 0.71
0.04 0.05 0.02 0.03 0.13 0.09 0.06 0.08 0.09 0.13 0.13 0.13 0.09 0.13 0.13 0.10 0.09 0.12 0.20 0.42 0.86 1.03 1.31 1.12 1.19 1.15 1.07 1.24 1.31 0.98 0.71 0.59
0.02 0.03 0.03 0.02 0.12 0.23 0.16 0.20 0.21 0.16 0.13 0.14 0.17 0.17 0.15 0.15 0.16 0.28 0.38 0.49 0.82 1.01 1.26 1.22 1.12 1.23 1.12 1.06 1.25 1.46 1.41 0.93
0.04 0.06 0.09 0.08 0.06 0.14 0.27 0.44 0.47 0.44 0.37 0.34 0.37 0.41 0.41 0.41 0.45 0.63 0.62 0.46 0.45 0.86 1.35 1.50 1.27 1.28 1.35 1.33 1.38 1.32 1.54 1.60
0.12 0.08 0.10 0.13 0.13 0.32 0.39 0.37 0.31 0.46 0.61 0.51 0.55 0.61 0.68 0.81 0.79 0.82 0.78 0.55 0.38 0.46 0.57 0.98 1.15 1.27 1.53 1.73 1.51 1.26 1.22 1.33
0.04 0.07 0.15 0.23 0.57 0.94 1.05 0.91 0.74 0.70 0.79 0.73 0.78 0.86 0.86 0.90 0.78 0.93 0.83 0.77 0.73 0.79 0.72 0.94 1.22 1.52 1.56 1.56 1.28 1.06 1.12 1.13
0.02 0.09 0.17 0.36 0.50 0.80 1.04 1.26 1.63 1.40 1.37 1.42 1.19 1.00 1.13 1.13 1.09 1.09 1.12 1.03 1.05 1.00 1.02 1.02 0.82 0.95 1.27 1.53 1.55 1.39 1.46 1.51
0.04 0.05 0.09 0.31 0.54 0.69 0.82 1.13 1.80 1.70 1.31 1.55 1.67 1.40 1.70 2.06 2.10 1.79 1.92 1.87 1.64 1.50 1.18 0.99 0.75 0.58 0.71 1.33 1.61 1.47 1.26 1.53
0.07 0.09 0.12 0.20 0.37 0.58 0.74 1.06 1.57 1.75 1.93 1.81 1.65 1.39 1.75 1.58 1.21 0.99 0.86 0.82 0.79 0.83 0.83 0.82 0.82 0.55 0.44 0.60 0.99 1.40 1.32 1.24
0.15 0.16 0.19 0.25 0.42 0.58 0.74 1.26 1.48 1.40 1.70 1.73 1.52 1.37 1.28 1.03 0.87 0.78 0.65 0.57 0.36 0.43 0.63 0.78 0.99 0.91 0.82 0.57 0.58 0.81 1.21 1.18
0.20 0.21 0.21 0.23 0.30 0.36 0.45 0.58 1.06 1.20 1.45 1.91 1.81 1.56 1.42 1.52 1.53 1.41 0.88 0.76 0.65 0.52 0.47 0.43 0.75 1.07 0.67 0.58 0.51 0.58 0.83 1.07
0.16 0.16 0.16 0.18 0.19 0.18 0.25 0.35 0.42 0.61 0.70 1.16 1.59 1.97 1.28 1.34 1.60 1.81 1.36 0.94 1.02 0.78 0.85 0.68 0.60 0.82 1.09 0.73 0.63 0.38 0.42 0.47
0.17 0.18 0.18 0.19 0.20 0.18 0.24 0.32 0.31 0.42 0.58 0.96 1.11 1.38 1.80 1.39 1.56 1.67 1.92 1.58 1.25 1.23 0.98 0.95 0.89 0.83 1.32 0.84 0.82 0.40 0.36 0.32
0.33 0.26 0.23 0.22 0.24 0.24 0.25 0.28 0.32 0.40 0.52 0.70 0.85 0.79 1.30 1.65 1.32 1.26 1.33 1.49 1.59 1.48 1.15 0.94 0.71 0.70 0.91 1.16 1.12 0.53 0.36 0.35

GFSFLT1_prec_precacc_117.txt.gz
Total_Precipitation_Accumulation
0.01 0.01 0.01 0.03 0.03 0.05 0.35 0.47 0.46 0.57 0.62 0.58 0.63 0.62 0.78 0.55 0.41 0.77 0.83 1.37 1.12 0.58 0.48 0.54 0.87 1.00 1.05 1.05 0.81 0.70 0.77 0.59
0.03 0.02 0.02 0.01 0.06 0.04 0.10 0.27 0.28 0.44 0.41 0.29 0.36 0.35 0.57 0.42 0.45 0.54 0.94 1.17 1.89 1.03 0.56 0.32 0.42 0.48 0.53 0.79 1.18 1.05 1.11 1.04
0.01 0.00 0.00 0.01 0.05 0.04 0.02 0.04 0.13 0.21 0.26 0.29 0.18 0.23 0.33 0.51 0.56 0.65 0.72 0.83 1.21 1.45 0.85 0.61 0.43 0.52 0.58 0.70 1.08 1.14 1.06 1.02
0.00 0.00 0.00 0.01 0.01 0.01 0.02 0.03 0.06 0.08 0.16 0.28 0.25 0.37 0.40 0.61 0.73 0.88 0.67 0.72 0.98 1.17 1.05 0.91 0.85 1.18 1.21 1.24 1.46 1.48 1.28 1.22
0.00 0.01 0.01 0.02 0.03 0.03 0.06 0.05 0.05 0.03 0.06 0.10 0.09 0.15 0.13 0.15 0.18 0.47 0.75 0.81 1.21 1.50 1.15 1.08 0.87 0.81 0.96 0.98 1.12 1.30 1.46 1.50
0.05 0.03 0.02 0.03 0.05 0.04 0.03 0.08 0.09 0.04 0.07 0.05 0.08 0.10 0.14 0.14 0.09 0.13 0.42 0.70 0.60 1.16 1.33 1.29 1.06 0.91 0.80 0.82 0.71 0.68 0.59 0.75
0.09 0.12 0.07 0.06 0.14 0.09 0.06 0.08 0.09 0.13 0.13 0.13 0.09 0.13 0.13 0.10 0.09 0.12 0.20 0.42 0.86 1.03 1.31 1.12 1.19 1.15 1.10 1.30 1.37 1.05 0.77 0.63
0.07 0.04 0.04 0.04 0.14 0.24 0.16 0.20 0.21 0.16 0.13 0.14 0.17 0.17 0.15 0.15 0.16 0.28 0.38 0.49 0.82 1.01 1.26 1.22 1.12 1.23 1.14 1.15 1.38 1.60 1.55 1.05
0.21 0.11 0.10 0.08 0.06 0.14 0.27 0.44 0.47 0.44 0.37 0.34 0.37 0.41 0.41 0.41 0.45 0.63 0.62 0.46 0.45 0.86 1.35 1.50 1.27 1.28 1.36 1.38 1.47 1.48 1.78 1.84
0.44 0.26 0.15 0.13 0.13 0.32 0.39 0.37 0.31 0.46 0.61 0.51 0.55 0.61 0.68 0.81 0.79 0.82 0.78 0.55 0.38 0.47 0.57 0.98 1.15 1.27 1.53 1.75 1.57 1.36 1.37 1.50
0.31 0.24 0.23 0.26 0.58 0.94 1.05 0.91 0.74 0.70 0.79 0.73 0.78 0.86 0.86 0.90 0.78 0.93 0.83 0.77 0.74 0.80 0.72 0.94 1.22 1.52 1.57 1.57 1.33 1.18 1.25 1.33
0.13 0.18 0.24 0.40 0.53 0.82 1.05 1.26 1.63 1.40 1.37 1.42 1.19 1.00 1.13 1.13 1.09 1.09 1.13 1.04 1.06 1.01 1.03 1.03 0.83 0.98 1.32 1.60 1.64 1.56 1.63 1.64
0.07 0.07 0.10 0.31 0.54 0.69 0.82 1.13 1.80 1.70 1.31 1.55 1.67 1.40 1.70 2.06 2.10 1.79 1.92 1.87 1.64 1.50 1.19 1.00 0.79 0.66 0.83 1.42 1.74 1.61 1.39 1.61
0.07 0.09 0.12 0.20 0.37 0.58 0.74 1.06 1.57 1.75 1.93 1.81 1.65 1.39 1.75 1.58 1.21 0.99 0.86 0.82 0.79 0.83 0.83 0.82 0.83 0.60 0.52 0.71 1.17 1.68 1.54 1.34
0.15 0.16 0.19 0.25 0.42 0.58 0.74 1.26 1.48 1.40 1.70 1.73 1.52 1.37 1.28 1.03 0.87 0.78 0.65 0.57 0.36 0.43 0.63 0.78 0.99 0.92 0.94 0.91 0.97 1.06 1.46 1.41
0.20 0.21 0.21 0.23 0.30 0.36 0.45 0.58 1.06 1.20 1.45 1.91 1.81 1.56 1.43 1.52 1.53 1.41 0.88 0.76 0.65 0.52 0.47 0.44 0.78 1.14 0.83 0.77 0.72 1.00 1.20 1.40
0.16 0.16 0.17 0.18 0.20 0.18 0.25 0.35 0.43 0.61 0.70 1.16 1.60 1.97 1.29 1.34 1.61 1.81 1.36 0.94 1.02 0.78 0.85 0.68 0.61 0.86 1.27 0.92 0.78 0.61 0.81 1.02
0.17 0.19 0.19 0.21 0.22 0.20 0.25 0.33 0.32 0.42 0.58 0.97 1.11 1.39 1.81 1.40 1.57 1.68 1.93 1.59 1.26 1.24 0.99 0.97 0.91 0.86 1.41 0.97 1.06 0.95 0.84 0.68
0.34 0.27 0.25 0.24 0.26 0.26 0.27 0.30 0.34 0.40 0.53 0.71 0.86 0.81 1.32 1.68 1.34 1.28 1.36 1.52 1.61 1.51 1.20 1.00 0.77 0.80 1.02 1.30 1.41 1.05 0.94 0.73

GFSFLT1_prec_precacc_123.txt.gz
Total_Precipitation_Accumulation
0.01 0.01 0.01 0.03 0.03 0.05 0.35 0.47 0.46 0.57 0.62 0.58 0.63 0.62 0.78 0.55 0.41 0.77 0.83 1.37 1.12 0.59 0.49 0.58 0.99 1.21 1.41 1.61 1.53 1.20 1.18 0.95
0.03 0.02 0.02 0.01 0.06 0.04 0.10 0.27 0.28 0.44 0.41 0.29 0.36 0.35 0.57 0.42 0.45 0.54 0.94 1.17 1.89 1.03 0.56 0.32 0.43 0.50 0.61 1.05 1.49 1.43 1.48 1.76
0.01 0.00 0.00 0.01 0.05 0.04 0.02 0.04 0.13 0.21 0.26 0.29 0.18 0.23 0.33 0.51 0.56 0.65 0.72 0.83 1.21 1.45 0.85 0.61 0.43 0.52 0.58 0.72 1.10 1.21 1.23 1.34
0.00 0.00 0.00 0.01 0.01 0.01 0.02 0.03 0.06 0.08 0.16 0.28 0.25 0.37 0.40 0.61 0.73 0.88 0.67 0.72 0.98 1.17 1.05 0.91 0.85 1.18 1.21 1.24 1.46 1.49 1.30 1.28
0.00 0.01 0.01 0.03 0.04 0.04 0.06 0.06 0.06 0.04 0.06 0.10 0.09 0.15 0.13 0.15 0.18 0.47 0.75 0.81 1.21 1.50 1.15 1.08 0.87 0.81 0.96 0.98 1.12 1.30 1.47 1.52
0.05 0.04 0.04 0.04 0.05 0.05 0.05 0.11 0.13 0.08 0.10 0.08 0.10 0.11 0.14 0.14 0.09 0.13 0.42 0.70 0.60 1.16 1.33 1.29 1.06 0.91 0.80 0.83 0.71 0.68 0.59 0.76
0.13 0.16 0.09 0.08 0.15 0.09 0.06 0.09 0.11 0.15 0.16 0.18 0.14 0.15 0.14 0.10 0.09 0.12 0.20 0.42 0.86 1.03 1.31 1.12 1.19 1.15 1.11 1.30 1.38 1.05 0.78 0.64
0.16 0.12 0.10 0.10 0.21 0.31 0.23 0.25 0.24 0.17 0.14 0.15 0.19 0.19 0.15 0.15 0.16 0.28 0.38 0.49 0.82 1.01 1.26 1.22 1.12 1.23 1.14 1.15 1.38 1.60 1.56 1.07
0.34 0.24 0.20 0.15 0.11 0.18 0.31 0.49 0.53 0.47 0.40 0.36 0.38 0.41 0.41 0.41 0.45 0.63 0.62 0.46 0.45 0.86 1.35 1.50 1.27 1.28 1.36 1.38 1.47 1.49 1.80 1.86
0.50 0.38 0.27 0.22 0.18 0.35 0.41 0.37 0.31 0.46 0.61 0.52 0.55 0.61 0.68 0.82 0.79 0.82 0.78 0.55 0.38 0.47 0.57 0.98 1.15 1.27 1.53 1.75 1.58 1.36 1.38 1.52
0.32 0.25 0.27 0.30 0.62 0.97 1.06 0.91 0.74 0.70 0.79 0.73 0.78 0.86 0.86 0.90 0.78 0.93 0.83 0.77 0.74 0.80 0.72 0.94 1.22 1.52 1.57 1.57 1.34 1.19 1.26 1.35
0.14 0.19 0.26 0.44 0.57 0.84 1.07 1.28 1.65 1.41 1.37 1.42 1.19 1.00 1.13 1.13 1.09 1.09 1.13 1.04 1.06 1.01 1.03 1.03 0.83 0.98 1.32 1.60 1.65 1.56 1.64 1.66
0.07 0.07 0.10 0.32 0.55 0.70 0.82 1.13 1.80 1.70 1.32 1.55 1.67 1.40 1.70 2.06 2.10 1.79 1.92 1.87 1.64 1.50 1.19 1.00 0.79 0.66 0.83 1.42 1.74 1.61 1.39 1.62
0.07 0.09 0.12 0.20 0.37 0.58 0.75 1.07 1.58 1.75 1.93 1.82 1.65 1.39 1.76 1.58 1.21 0.99 0.86 0.82 0.79 0.83 0.83 0.82 0.84 0.60 0.52 0.71 1.17 1.68 1.55 1.36
0.15 0.16 0.19 0.25 0.42 0.58 0.74 1.26 1.48 1.40 1.70 1.73 1.52 1.37 1.28 1.03 0.88 0.78 0.65 0.57 0.36 0.43 0.63 0.78 0.99 0.93 0.95 0.91 0.97 1.06 1.46 1.42
0.20 0.21 0.22 0.23 0.30 0.36 0.45 0.58 1.06 1.20 1.46 1.91 1.81 1.56 1.43 1.52 1.54 1.41 0.88 0.76 0.66 0.52 0.48 0.45 0.79 1.14 0.84 0.77 0.72 1.00 1.20 1.40
0.16 0.16 0.17 0.19 0.20 0.19 0.26 0.36 0.43 0.61 0.70 1.16 1.60 1.97 1.29 1.34 1.61 1.81 1.36 0.94 1.02 0.78 0.85 0.68 0.62 0.86 1.28 0.93 0.79 0.61 0.81 1.03
0.17 0.19 0.19 0.22 0.23 0.21 0.26 0.34 0.32 0.42 0.58 0.97 1.11 1.39 1.81 1.40 1.57 1.68 1.93 1.59 1.26 1.24 1.00 0.97 0.91 0.87 1.41 0.97 1.07 0.96 0.85 0.71
0.34 0.28 0.26 0.25 0.27 0.28 0.29 0.32 0.35 0.40 0.53 0.71 0.86 0.81 1.32 1.68 1.34 1.28 1.36 1.52 1.61 1.52 1.20 1.00 0.77 0.81 1.03 1.30 1.43 1.08 0.98 0.80

GFSFLT1_prec_precacc_126.txt.gz
Total_Precipitation_Accumulation
0.01 0.01 0.01 0.03 0.03 0.05 0.35 0.47 0.46 0.57 0.62 0.58 0.63 0.62 0.78 0.55 0.41 0.77 0.83 1.37 1.12 0.59 0.49 0.58 0.99 1.21 1.42 1.63 1.54 1.25 1.26 1.11
0.03 0.02 0.02 0.01 0.06 0.04 0.10 0.27 0.28 0.44 0.41 0.29 0.36 0.36 0.57 0.42 0.45 0.54 0.94 1.17 1.89 1.03 0.56 0.32 0.43 0.50 0.61 1.05 1.50 1.43 1.50 1.82
0.01 0.00 0.00 0.01 0.05 0.04 0.02 0.04 0.13 0.21 0.26 0.29 0.18 0.23 0.33 0.51 0.56 0.65 0.72 0.83 1.21 1.45 0.85 0.61 0.43 0.52 0.58 0.72 1.10 1.21 1.24 1.36
0.00 0.00 0.00 0.01 0.01 0.01 0.02 0.03 0.06 0.08 0.16 0.28 0.25 0.37 0.40 0.61 0.73 0.88 0.67 0.72 0.98 1.17 1.05 0.91 0.85 1.18 1.21 1.24 1.46 1.49 1.31 1.29
0.00 0.01 0.01 0.03 0.04 0.04 0.06 0.06 0.06 0.04 0.06 0.10 0.09 0.15 0.13 0.15 0.18 0.47 0.75 0.81 1.21 1.50 1.15 1.08 0.87 0.81 0.96 0.99 1.12 1.30 1.47 1.53
0.05 0.04 0.04 0.04 0.05 0.05 0.05 0.11 0.13 0.08 0.10 0.08 0.10 0.11 0.14 0.14 0.09 0.13 0.42 0.70 0.60 1.16 1.33 1.29 1.07 0.91 0.80 0.83 0.71 0.69 0.60 0.76
0.13 0.16 0.09 0.08 0.15 0.09 0.06 0.09 0.11 0.15 0.16 0.18 0.14 0.16 0.16 0.12 0.09 0.12 0.20 0.42 0.86 1.03 1.31 1.12 1.20 1.15 1.11 1.30 1.38 1.05 0.78 0.65
0.16 0.12 0.10 0.10 0.21 0.32 0.24 0.25 0.24 0.18 0.14 0.15 0.19 0.20 0.18 0.18 0.19 0.29 0.38 0.49 0.82 1.01 1.26 1.22 1.12 1.23 1.14 1.16 1.38 1.60 1.56 1.07
0.34 0.24 0.20 0.15 0.11 0.18 0.31 0.49 0.53 0.48 0.40 0.36 0.39 0.42 0.41 0.41 0.46 0.65 0.64 0.47 0.45 0.86 1.35 1.50 1.27 1.28 1.36 1.38 1.47 1.49 1.80 1.86
0.50 0.38 0.27 0.22 0.18 0.35 0.41 0.37 0.31 0.46 0.61 0.52 0.55 0.61 0.68 0.82 0.80 0.83 0.79 0.56 0.39 0.47 0.57 0.98 1.16 1.27 1.53 1.75 1.58 1.37 1.39 1.52
0.32 0.25 0.27 0.30 0.62 0.97 1.06 0.91 0.74 0.71 0.79 0.73 0.78 0.86 0.87 0.90 0.78 0.94 0.83 0.78 0.74 0.80 0.72 0.94 1.22 1.53 1.57 1.58 1.34 1.19 1.27 1.35
0.14 0.19 0.26 0.44 0.57 0.84 1.07 1.28 1.65 1.41 1.37 1.42 1.19 1.00 1.13 1.14 1.10 1.09 1.13 1.04 1.06 1.01 1.03 1.03 0.84 0.98 1.32 1.60 1.65 1.56 1.64 1.66
0.07 0.07 0.10 0.32 0.55 0.70 0.82 1.13 1.80 1.70 1.32 1.55 1.67 1.40 1.71 2.06 2.10 1.79 1.93 1.87 1.64 1.50 1.19 1.00 0.79 0.66 0.83 1.42 1.74 1.61 1.39 1.63
0.07 0.09 0.12 0.20 0.37 0.58 0.75 1.07 1.58 1.75 1.93 1.82 1.65 1.39 1.76 1.58 1.21 0.99 0.86 0.82 0.79 0.83 0.83 0.82 0.84 0.61 0.53 0.72 1.17 1.69 1.55 1.36
0.15 0.16 0.19 0.25 0.42 0.58 0.74 1.26 1.48 1.40 1.70 1.73 1.52 1.37 1.28 1.03 0.88 0.78 0.65 0.57 0.36 0.43 0.63 0.78 0.99 0.93 0.95 0.92 0.97 1.06 1.46 1.43
0.20 0.21 0.22 0.23 0.31 0.36 0.45 0.58 1.06 1.20 1.46 1.91 1.81 1.56 1.43 1.52 1.54 1.41 0.88 0.76 0.66 0.52 0.48 0.45 0.79 1.15 0.84 0.77 0.72 1.01 1.20 1.40
0.16 0.16 0.17 0.19 0.20 0.19 0.26 0.36 0.43 0.61 0.70 1.16 1.60 1.97 1.29 1.34 1.61 1.81 1.36 0.94 1.02 0.78 0.85 0.68 0.62 0.86 1.28 0.93 0.79 0.61 0.82 1.03
0.17 0.19 0.19 0.22 0.23 0.21 0.27 0.34 0.32 0.42 0.58 0.97 1.11 1.39 1.81 1.40 1.57 1.68 1.93 1.59 1.26 1.24 1.00 0.98 0.91 0.87 1.41 0.97 1.07 0.96 0.85 0.71
0.34 0.28 0.26 0.25 0.27 0.28 0.29 0.32 0.35 0.40 0.53 0.71 0.86 0.81 1.32 1.68 1.34 1.28 1.36 1.52 1.61 1.52 1.20 1.00 0.77 0.81 1.03 1.30 1.43 1.08 0.98 0.80

GFSFLT1_prec_precacc_129.txt.gz
Total_Precipitation_Accumulation
0.01 0.01 0.01 0.03 0.03 0.05 0.35 0.47 0.46 0.57 0.62 0.58 0.63 0.62 0.78 0.55 0.41 0.78 0.84 1.38 1.12 0.59 0.49 0.58 0.99 1.21 1.42 1.63 1.55 1.25 1.29 1.20
0.03 0.02 0.02 0.01 0.06 0.04 0.10 0.27 0.28 0.44 0.41 0.29 0.36 0.36 0.57 0.42 0.45 0.54 0.95 1.17 1.89 1.03 0.56 0.32 0.43 0.50 0.61 1.05 1.50 1.44 1.51 1.84
0.01 0.00 0.00 0.01 0.05 0.04 0.02 0.04 0.13 0.21 0.26 0.29 0.18 0.23 0.33 0.51 0.56 0.65 0.72 0.83 1.21 1.45 0.85 0.61 0.43 0.52 0.58 0.72 1.10 1.21 1.24 1.37
0.00 0.00 0.00 0.01 0.01 0.01 0.02 0.03 0.06 0.08 0.16 0.28 0.25 0.37 0.40 0.61 0.73 0.88 0.67 0.72 0.98 1.17 1.05 0.91 0.85 1.18 1.22 1.24 1.46 1.49 1.31 1.29
0.00 0.01 0.01 0.03 0.04 0.04 0.06 0.06 0.06 0.04 0.06 0.10 0.09 0.15 0.13 0.15 0.18 0.47 0.75 0.81 1.21 1.50 1.15 1.08 0.87 0.81 0.97 0.99 1.12 1.31 1.48 1.53
0.05 0.04 0.04 0.04 0.05 0.05 0.05 0.11 0.13 0.08 0.10 0.08 0.10 0.11 0.14 0.14 0.09 0.13 0.42 0.70 0.60 1.16 1.33 1.29 1.07 0.91 0.80 0.83 0.71 0.69 0.60 0.77
0.13 0.16 0.09 0.08 0.15 0.09 0.06 0.09 0.11 0.15 0.16 0.18 0.14 0.16 0.16 0.12 0.09 0.12 0.20 0.42 0.86 1.03 1.31 1.12 1.20 1.15 1.11 1.31 1.38 1.06 0.78 0.65
0.16 0.12 0.10 0.10 0.21 0.32 0.24 0.25 0.24 0.18 0.14 0.15 0.19 0.20 0.18 0.18 0.19 0.29 0.39 0.50 0.82 1.01 1.26 1.22 1.12 1.23 1.14 1.16 1.39 1.61 1.56 1.08
0.34 0.24 0.20 0.15 0.11 0.18 0.31 0.49 0.53 0.48 0.40 0.36 0.39 0.42 0.41 0.41 0.46 0.65 0.64 0.47 0.46 0.88 1.36 1.51 1.27 1.28 1.36 1.38 1.47 1.49 1.80 1.86
0.50 0.38 0.27 0.22 0.18 0.35 0.41 0.37 0.31 0.46 0.61 0.52 0.55 0.61 0.68 0.82 0.80 0.83 0.79 0.56 0.39 0.47 0.59 1.00 1.16 1.28 1.53 1.75 1.58 1.37 1.39 1.52
0.32 0.25 0.27 0.30 0.62 0.97 1.06 0.91 0.74 0.71 0.79 0.73 0.78 0.86 0.87 0.90 0.78 0.94 0.83 0.78 0.74 0.80 0.72 0.95 1.22 1.53 1.57 1.58 1.34 1.19 1.27 1.35
0.14 0.19 0.26 0.44 0.57 0.84 1.07 1.28 1.65 1.41 1.37 1.42 1.19 1.00 1.13 1.14 1.10 1.09 1.13 1.04 1.06 1.01 1.03 1.03 0.84 0.98 1.32 1.60 1.65 1.56 1.64 1.67
0.07 0.07 0.10 0.32 0.55 0.70 0.82 1.13 1.80 1.70 1.32 1.55 1.67 1.40 1.71 2.06 2.10 1.80 1.93 1.88 1.64 1.50 1.19 1.00 0.80 0.66 0.83 1.43 1.74 1.61 1.39 1.63
0.07 0.09 0.12 0.20 0.37 0.58 0.75 1.07 1.58 1.75 1.93 1.82 1.65 1.39 1.76 1.58 1.21 0.99 0.86 0.82 0.79 0.83 0.83 0.82 0.84 0.61 0.53 0.72 1.17 1.69 1.55 1.37
0.15 0.16 0.19 0.25 0.42 0.58 0.74 1.26 1.48 1.40 1.70 1.73 1.52 1.37 1.28 1.03 0.88 0.78 0.65 0.57 0.36 0.43 0.63 0.78 0.99 0.93 0.95 0.92 0.97 1.06 1.46 1.43
0.20 0.21 0.22 0.23 0.31 0.36 0.45 0.58 1.06 1.20 1.46 1.91 1.81 1.56 1.43 1.52 1.54 1.41 0.88 0.76 0.66 0.52 0.48 0.45 0.79 1.15 0.84 0.77 0.72 1.01 1.20 1.40
0.16 0.16 0.17 0.19 0.20 0.19 0.26 0.36 0.43 0.61 0.70 1.16 1.60 1.97 1.29 1.34 1.61 1.81 1.36 0.94 1.02 0.78 0.85 0.68 0.62 0.86 1.28 0.93 0.79 0.61 0.82 1.03
0.18 0.20 0.19 0.22 0.23 0.21 0.27 0.34 0.32 0.42 0.58 0.97 1.11 1.39 1.81 1.40 1.57 1.68 1.93 1.59 1.26 1.24 1.00 0.98 0.91 0.87 1.41 0.97 1.07 0.96 0.85 0.71
0.35 0.28 0.26 0.25 0.27 0.28 0.29 0.32 0.35 0.40 0.53 0.71 0.86 0.81 1.32 1.68 1.34 1.28 1.36 1.52 1.62 1.52 1.20 1.00 0.77 0.81 1.03 1.30 1.43 1.08 0.99 0.80

GFSFLT1_prec_precacc_135.txt.gz
Total_Precipitation_Accumulation
0.01 0.01 0.01 0.03 0.03 0.05 0.35 0.47 0.46 0.57 0.62 0.58 0.63 0.62 0.78 0.55 0.41 0.78 0.84 1.38 1.12 0.59 0.50 0.59 0.99 1.21 1.42 1.63 1.55 1.26 1.29 1.20
0.03 0.02 0.02 0.01 0.06 0.04 0.10 0.27 0.28 0.44 0.41 0.29 0.36 0.36 0.57 0.42 0.45 0.54 0.95 1.17 1.89 1.04 0.56 0.32 0.43 0.50 0.61 1.05 1.50 1.44 1.51 1.84
0.01 0.00 0.00 0.01 0.05 0.04 0.02 0.04 0.13 0.21 0.26 0.29 0.18 0.23 0.33 0.51 0.56 0.65 0.72 0.83 1.21 1.45 0.85 0.61 0.43 0.52 0.58 0.72 1.10 1.21 1.24 1.37
0.00 0.00 0.00 0.01 0.01 0.01 0.02 0.03 0.06 0.08 0.16 0.28 0.25 0.37 0.40 0.61 0.73 0.88 0.67 0.72 0.98 1.17 1.05 0.91 0.85 1.18 1.22 1.24 1.46 1.49 1.31 1.29
0.00 0.01 0.01 0.03 0.04 0.04 0.06 0.06 0.06 0.04 0.06 0.10 0.09 0.15 0.13 0.15 0.18 0.47 0.75 0.81 1.21 1.50 1.15 1.08 0.87 0.81 0.97 0.99 1.12 1.31 1.48 1.53
0.05 0.04 0.04 0.04 0.05 0.05 0.05 0.11 0.13 0.08 0.10 0.08 0.10 0.11 0.14 0.14 0.09 0.13 0.42 0.70 0.60 1.16 1.33 1.29 1.07 0.91 0.80 0.83 0.71 0.69 0.60 0.77
0.13 0.16 0.09 0.08 0.15 0.09 0.06 0.09 0.11 0.15 0.16 0.18 0.14 0.16 0.16 0.12 0.09 0.12 0.20 0.42 0.86 1.03 1.31 1.12 1.20 1.15 1.11 1.31 1.38 1.06 0.78 0.65
0.16 0.12 0.10 0.10 0.21 0.32 0.24 0.25 0.24 0.18 0.14 0.15 0.19 0.20 0.18 0.18 0.19 0.29 0.39 0.50 0.83 1.01 1.26 1.22 1.12 1.23 1.14 1.16 1.39 1.61 1.57 1.08
0.34 0.24 0.20 0.15 0.11 0.18 0.31 0.49 0.53 0.48 0.40 0.36 0.39 0.42 0.41 0.41 0.46 0.65 0.64 0.47 0.46 0.88 1.36 1.51 1.27 1.28 1.36 1.38 1.48 1.49 1.80 1.86
0.50 0.38 0.27 0.22 0.18 0.35 0.41 0.37 0.31 0.46 0.61 0.52 0.55 0.61 0.68 0.82 0.80 0.83 0.79 0.56 0.39 0.47 0.59 1.00 1.16 1.28 1.54 1.76 1.59 1.37 1.39 1.52
0.32 0.25 0.27 0.30 0.62 0.97 1.06 0.91 0.74 0.71 0.79 0.73 0.78 0.86 0.87 0.90 0.78 0.94 0.83 0.78 0.74 0.80 0.72 0.95 1.23 1.53 1.57 1.58 1.34 1.19 1.27 1.35
0.14 0.19 0.26 0.44 0.57 0.84 1.07 1.28 1.65 1.41 1.37 1.42 1.19 1.00 1.13 1.14 1.10 1.10 1.13 1.04 1.06 1.02 1.03 1.03 0.84 0.98 1.32 1.61 1.65 1.57 1.64 1.67
0.07 0.07 0.10 0.32 0.55 0.70 0.82 1.13 1.80 1.70 1.32 1.55 1.67 1.40 1.71 2.06 2.10 1.80 1.93 1.88 1.64 1.50 1.19 1.00 0.80 0.67 0.83 1.43 1.74 1.61 1.40 1.63
0.07 0.09 0.12 0.20 0.37 0.58 0.75 1.07 1.58 1.75 1.93 1.82 1.65 1.39 1.76 1.58 1.21 0.99 0.86 0.82 0.79 0.83 0.83 0.82 0.84 0.61 0.53 0.72 1.17 1.69 1.56 1.37
0.15 0.16 0.19 0.25 0.42 0.58 0.74 1.26 1.48 1.40 1.70 1.73 1.52 1.37 1.28 1.03 0.88 0.78 0.65 0.57 0.36 0.43 0.63 0.78 0.99 0.93 0.95 0.92 0.97 1.06 1.46 1.43
0.20 0.21 0.22 0.23 0.31 0.36 0.45 0.58 1.06 1.20 1.46 1.91 1.81 1.56 1.43 1.52 1.54 1.41 0.88 0.76 0.66 0.52 0.48 0.45 0.79 1.15 0.84 0.77 0.72 1.01 1.20 1.40
0.16 0.16 0.17 0.19 0.20 0.19 0.26 0.36 0.43 0.61 0.70 1.16 1.60 1.97 1.29 1.34 1.61 1.81 1.36 0.94 1.02 0.78 0.85 0.68 0.62 0.86 1.28 0.93 0.79 0.61 0.82 1.03
0.18 0.20 0.19 0.22 0.23 0.21 0.27 0.34 0.32 0.42 0.58 0.97 1.11 1.39 1.81 1.40 1.57 1.68 1.93 1.59 1.26 1.24 1.00 0.98 0.91 0.87 1.41 0.98 1.07 0.96 0.85 0.71
0.35 0.28 0.26 0.25 0.27 0.28 0.29 0.32 0.35 0.40 0.53 0.71 0.86 0.81 1.32 1.68 1.34 1.29 1.36 1.52 1.62 1.52 1.21 1.00 0.77 0.81 1.03 1.30 1.43 1.08 0.99 0.80

GFSFLT1_prec_precacc_141.txt.gz
Total_Precipitation_Accumulation
0.01 0.01 0.01 0.03 0.03 0.05 0.35 0.47 0.46 0.57 0.62 0.58 0.63 0.62 0.78 0.55 0.41 0.78 0.84 1.38 1.12 0.59 0.50 0.59 0.99 1.21 1.42 1.63 1.55 1.26 1.29 1.20
0.03 0.02 0.02 0.01 0.06 0.04 0.10 0.27 0.28 0.44 0.41 0.29 0.36 0.36 0.57 0.42 0.45 0.54 0.95 1.17 1.89 1.04 0.56 0.32 0.43 0.50 0.61 1.05 1.50 1.44 1.51 1.84
0.01 0.00 0.00 0.01 0.05 0.04 0.02 0.04 0.13 0.21 0.26 0.29 0.18 0.23 0.33 0.51 0.56 0.65 0.72 0.83 1.21 1.45 0.85 0.61 0.43 0.52 0.58 0.72 1.10 1.21 1.24 1.37
0.00 0.00 0.00 0.01 0.01 0.01 0.02 0.03 0.06 0.08 0.16 0.28 0.25 0.37 0.40 0.61 0.73 0.88 0.67 0.72 0.98 1.17 1.05 0.91 0.85 1.18 1.22 1.24 1.46 1.49 1.31 1.29
0.00 0.01 0.01 0.03 0.04 0.04 0.06 0.06 0.06 0.04 0.06 0.10 0.09 0.15 0.13 0.15 0.18 0.47 0.75 0.81 1.21 1.50 1.15 1.08 0.87 0.81 0.97 0.99 1.12 1.31 1.48 1.53
0.05 0.04 0.04 0.04 0.05 0.05 0.05 0.11 0.13 0.08 0.10 0.08 0.10 0.11 0.14 0.14 0.09 0.13 0.42 0.70 0.60 1.16 1.33 1.29 1.07 0.91 0.80 0.83 0.71 0.69 0.60 0.78
0.13 0.16 0.09 0.08 0.15 0.09 0.06 0.09 0.11 0.15 0.16 0.18 0.14 0.16 0.16 0.12 0.09 0.12 0.20 0.42 0.86 1.03 1.31 1.12 1.20 1.15 1.11 1.31 1.38 1.06 0.78 0.65
0.16 0.12 0.10 0.10 0.21 0.32 0.24 0.25 0.24 0.18 0.14 0.15 0.19 0.20 0.18 0.18 0.19 0.29 0.39 0.50 0.83 1.01 1.26 1.22 1.12 1.23 1.14 1.16 1.39 1.61 1.57 1.08
0.34 0.24 0.20 0.15 0.11 0.18 0.31 0.49 0.53 0.48 0.40 0.36 0.39 0.42 0.41 0.41 0.46 0.65 0.64 0.47 0.46 0.88 1.36 1.51 1.27 1.28 1.36 1.38 1.48 1.49 1.80 1.86
0.50 0.38 0.27 0.22 0.18 0.35 0.41 0.37 0.31 0.46 0.61 0.52 0.55 0.61 0.68 0.82 0.80 0.83 0.79 0.56 0.39 0.47 0.59 1.00 1.16 1.28 1.54 1.76 1.59 1.37 1.39 1.53
0.32 0.25 0.27 0.30 0.62 0.97 1.06 0.91 0.74 0.71 0.79 0.73 0.78 0.86 0.87 0.90 0.78 0.94 0.83 0.78 0.74 0.80 0.72 0.95 1.23 1.53 1.57 1.59 1.35 1.20 1.28 1.36
0.14 0.19 0.26 0.44 0.57 0.84 1.07 1.28 1.65 1.41 1.37 1.42 1.19 1.00 1.13 1.14 1.10 1.10 1.13 1.04 1.06 1.02 1.03 1.03 0.84 0.98 1.32 1.61 1.66 1.58 1.67 1.71
0.07 0.07 0.10 0.32 0.55 0.70 0.82 1.13 1.80 1.70 1.32 1.55 1.67 1.40 1.71 2.06 2.10 1.80 1.93 1.88 1.64 1.50 1.19 1.00 0.80 0.67 0.83 1.43 1.75 1.61 1.40 1.64
0.07 0.09 0.12 0.20 0.37 0.58 0.75 1.07 1.58 1.75 1.93 1.82 1.65 1.39 1.76 1.58 1.21 0.99 0.86 0.82 0.79 0.83 0.83 0.82 0.84 0.61 0.53 0.72 1.17 1.69 1.56 1.37
0.15 0.16 0.19 0.25 0.42 0.58 0.74 1.26 1.48 1.40 1.70 1.73 1.52 1.37 1.28 1.03 0.88 0.78 0.65 0.57 0.36 0.43 0.63 0.78 0.99 0.93 0.95 0.92 0.97 1.06 1.46 1.43
0.21 0.23 0.23 0.23 0.31 0.37 0.45 0.58 1.06 1.20 1.46 1.91 1.81 1.56 1.43 1.52 1.54 1.41 0.88 0.76 0.66 0.52 0.48 0.45 0.79 1.15 0.84 0.77 0.72 1.01 1.20 1.40
0.24 0.28 0.29 0.28 0.24 0.20 0.26 0.36 0.43 0.61 0.70 1.16 1.60 1.97 1.29 1.34 1.61 1.81 1.36 0.94 1.02 0.78 0.85 0.68 0.62 0.87 1.28 0.93 0.79 0.61 0.82 1.03
0.19 0.20 0.19 0.22 0.23 0.22 0.28 0.36 0.33 0.42 0.58 0.97 1.11 1.39 1.81 1.40 1.57 1.68 1.93 1.59 1.26 1.24 1.00 0.98 0.91 0.87 1.41 0.98 1.07 0.96 0.85 0.71
0.36 0.29 0.26 0.26 0.29 0.33 0.36 0.39 0.36 0.40 0.53 0.71 0.86 0.81 1.32 1.68 1.34 1.29 1.36 1.52 1.62 1.52 1.21 1.00 0.77 0.81 1.03 1.30 1.43 1.08 0.99 0.80

GFSFLT1_prec_precacc_147.txt.gz
Total_Precipitation_Accumulation
0.01 0.01 0.01 0.03 0.03 0.05 0.35 0.47 0.46 0.57 0.62 0.58 0.63 0.62 0.78 0.55 0.41 0.78 0.84 1.38 1.12 0.59 0.50 0.59 0.99 1.21 1.42 1.63 1.55 1.26 1.29 1.20
0.03 0.02 0.02 0.01 0.06 0.04 0.10 0.27 0.28 0.44 0.41 0.29 0.36 0.36 0.57 0.42 0.45 0.54 0.95 1.17 1.89 1.04 0.56 0.32 0.43 0.50 0.61 1.05 1.50 1.44 1.51 1.84
0.01 0.00 0.00 0.01 0.05 0.04 0.02 0.04 0.13 0.21 0.26 0.29 0.18 0.23 0.33 0.51 0.56 0.65 0.72 0.83 1.21 1.45 0.85 0.61 0.43 0.52 0.58 0.72 1.10 1.21 1.24 1.37
0.00 0.00 0.00 0.01 0.01 0.01 0.02 0.03 0.06 0.08 0.16 0.28 0.25 0.37 0.40 0.61 0.73 0.88 0.67 0.72 0.98 1.17 1.05 0.91 0.85 1.18 1.22 1.24 1.46 1.49 1.31 1.29
0.00 0.01 0.01 0.03 0.04 0.04 0.06 0.06 0.06 0.04 0.06 0.10 0.09 0.15 0.13 0.15 0.18 0.47 0.75 0.81 1.21 1.50 1.15 1.08 0.87 0.81 0.97 0.99 1.12 1.31 1.48 1.53
0.05 0.04 0.04 0.04 0.05 0.05 0.05 0.11 0.13 0.08 0.10 0.08 0.10 0.11 0.14 0.14 0.09 0.13 0.42 0.70 0.60 1.16 1.33 1.29 1.07 0.91 0.80 0.83 0.71 0.69 0.60 0.78
0.13 0.16 0.09 0.08 0.15 0.09 0.06 0.09 0.11 0.15 0.16 0.18 0.14 0.16 0.16 0.12 0.09 0.12 0.20 0.42 0.86 1.03 1.31 1.12 1.20 1.15 1.11 1.31 1.38 1.06 0.78 0.65
0.16 0.12 0.10 0.10 0.21 0.32 0.24 0.25 0.24 0.18 0.14 0.15 0.19 0.20 0.18 0.18 0.19 0.29 0.39 0.50 0.83 1.01 1.26 1.22 1.12 1.23 1.14 1.16 1.39 1.61 1.57 1.08
0.34 0.24 0.20 0.15 0.11 0.18 0.31 0.49 0.53 0.48 0.40 0.36 0.39 0.42 0.41 0.41 0.46 0.65 0.64 0.47 0.46 0.88 1.36 1.51 1.27 1.28 1.36 1.38 1.48 1.49 1.80 1.86
0.50 0.38 0.27 0.22 0.18 0.35 0.41 0.37 0.31 0.46 0.61 0.52 0.55 0.61 0.68 0.82 0.80 0.83 0.79 0.56 0.39 0.47 0.59 1.00 1.16 1.28 1.54 1.76 1.59 1.37 1.39 1.53
0.32 0.25 0.27 0.30 0.62 0.97 1.06 0.91 0.74 0.71 0.79 0.73 0.78 0.86 0.87 0.90 0.78 0.94 0.83 0.78 0.74 0.80 0.72 0.95 1.23 1.53 1.57 1.59 1.35 1.20 1.28 1.36
0.14 0.19 0.26 0.44 0.57 0.84 1.07 1.28 1.65 1.41 1.37 1.42 1.19 1.00 1.13 1.14 1.10 1.10 1.13 1.04 1.06 1.02 1.03 1.03 0.84 0.98 1.32 1.61 1.66 1.58 1.67 1.71
0.07 0.07 0.10 0.32 0.55 0.70 0.82 1.13 1.80 1.70 1.32 1.55 1.67 1.40 1.71 2.06 2.10 1.80 1.93 1.88 1.64 1.50 1.19 1.00 0.80 0.67 0.83 1.43 1.75 1.61 1.40 1.64
0.07 0.09 0.12 0.20 0.37 0.58 0.75 1.07 1.58 1.75 1.93 1.82 1.65 1.39 1.76 1.58 1.21 0.99 0.86 0.82 0.79 0.83 0.83 0.82 0.84 0.61 0.53 0.72 1.17 1.69 1.56 1.37
0.15 0.16 0.19 0.25 0.42 0.58 0.74 1.26 1.48 1.40 1.70 1.73 1.52 1.37 1.28 1.03 0.88 0.78 0.65 0.57 0.36 0.43 0.63 0.78 0.99 0.93 0.95 0.92 0.97 1.06 1.46 1.43
0.21 0.23 0.23 0.23 0.31 0.37 0.45 0.58 1.06 1.20 1.46 1.91 1.81 1.56 1.43 1.52 1.54 1.41 0.88 0.76 0.66 0.52 0.48 0.45 0.79 1.15 0.84 0.77 0.72 1.01 1.20 1.40
0.24 0.28 0.29 0.29 0.28 0.24 0.29 0.37 0.45 0.62 0.71 1.16 1.60 1.97 1.29 1.34 1.61 1.81 1.36 0.94 1.02 0.78 0.85 0.68 0.62 0.87 1.28 0.93 0.79 0.61 0.82 1.03
0.21 0.22 0.20 0.24 0.27 0.26 0.30 0.37 0.34 0.45 0.60 0.97 1.12 1.39 1.81 1.40 1.57 1.68 1.93 1.59 1.26 1.24 1.00 0.98 0.91 0.87 1.41 0.98 1.07 0.96 0.85 0.71
0.38 0.33 0.33 0.36 0.40 0.40 0.42 0.48 0.52 0.56 0.63 0.78 0.90 0.81 1.32 1.68 1.34 1.29 1.36 1.52 1.62 1.52 1.21 1.00 0.77 0.81 1.03 1.30 1.43 1.08 0.99 0.80